RH
59 59 61 64 70 75 74 77 80 84 81 83 90 98 98 98 98 96 97 97 94 94 94 90 89 81 71 67 52 43 40 38 37 32 32 32 34 36 37 39 45 49 53
63 64 61 73 77 75 80 82 80 79 83 82 82 91 95 98 98 97 97 96 96 93 90 81 79 73 63 51 47 42 38 35 40 39 39 41 41 44 47 48 43 45 48
69 73 70 74 76 79 75 74 76 85 89 87 83 78 80 87 88 97 95 83 86 88 76 71 66 58 48 46 39 37 36 38 44 44 40 39 41 46 48 45 46 50 47
64 62 69 80 72 74 79 77 86 92 93 92 76 71 89 74 74 67 73 78 71 69 71 60 51 46 42 34 33 34 35 35 37 38 39 40 46 43 42 42 44 52 67
60 67 62 65 70 79 83 87 93 95 96 82 79 76 75 71 68 66 62 68 70 64 53 49 46 39 35 37 36 34 33 32 34 38 38 40 45 42 47 41 51 70 74
59 61 65 71 72 79 89 89 90 92 86 78 73 74 75 73 62 66 69 68 59 52 46 42 35 33 34 33 34 33 34 38 42 45 48 55 54 56 58 48 56 77 79
55 60 67 72 84 85 84 88 86 81 78 73 74 71 65 63 69 69 61 56 54 47 42 37 37 37 35 35 36 36 35 38 44 48 52 52 55 55 64 49 54 72 70
58 63 68 77 84 84 80 78 79 76 73 72 70 66 69 69 64 61 62 56 50 45 41 42 40 36 35 34 31 30 32 34 37 46 46 46 54 48 71 61 62 68 70
58 63 68 71 73 74 73 73 71 68 72 68 68 68 67 62 62 64 60 54 50 44 42 38 33 31 29 27 28 27 25 23 21 25 30 37 44 44 75 70 71 79 72
51 54 59 60 61 62 62 63 64 64 65 66 68 67 65 62 64 61 54 48 43 39 37 35 32 29 27 28 32 33 32 29 32 26 24 37 42 57 76 67 82 83 84
48 48 50 53 54 56 59 62 65 67 66 68 67 65 65 64 56 51 47 45 41 40 38 35 33 30 30 33 35 38 39 41 36 34 30 26 27 43 62 69 83 90 90
45 46 48 52 56 59 61 67 69 69 69 69 70 67 61 58 54 50 49 47 47 44 39 36 33 32 31 32 35 40 47 47 43 38 31 36 49 60 57 78 84 85 89
50 53 56 59 61 66 69 73 70 70 72 71 68 63 61 58 56 56 55 54 48 42 38 36 34 34 35 41 47 47 47 48 50 50 45 42 57 67 77 83 87 90 87
58 62 66 68 68 72 73 72 73 73 71 70 65 62 60 58 55 53 51 47 45 42 40 39 38 40 44 43 40 38 41 45 57 59 58 60 66 73 82 88 89 88 84
71 75 77 78 79 78 77 74 70 69 68 65 63 61 57 55 53 51 50 48 46 45 44 42 42 49 43 37 31 35 41 50 53 72 71 71 76 81 83 87 86 84 80
83 83 88 85 80 80 75 70 72 68 67 67 62 58 57 57 55 54 53 52 49 47 46 46 51 49 41 35 35 36 39 45 57 64 72 87 88 88 87 88 88 87 84
90 88 85 82 80 76 76 75 79 80 75 70 68 67 66 65 62 59 57 54 51 54 54 52 50 45 43 41 39 38 34 37 46 59 68 90 96 87 87 89 89 89 85
90 87 87 83 79 78 83 82 73 71 78 79 75 73 72 72 70 65 60 58 59 57 53 50 50 48 46 44 41 38 37 34 35 45 64 74 85 89 89 94 99 90 89
90 90 87 91 91 83 76 76 82 81 77 74 75 75 77 74 71 69 62 62 58 50 49 50 49 49 46 43 42 41 39 38 38 40 55 71 80 85 91 94 95 92 93
96 96 92 88 83 84 87 85 79 79 81 79 79 78 77 75 70 62 55 55 54 54 53 50 48 45 44 44 42 40 42 44 45 48 50 71 82 90 94 96 98 98 97
97 93 86 88 89 85 81 80 80 81 81 81 79 78 75 69 62 55 55 55 56 55 50 46 45 45 44 43 43 43 44 45 50 53 53 61 85 91 98 98 99 99 99
88 92 92 86 84 83 82 82 81 82 81 81 77 73 70 64 60 59 57 55 53 50 46 44 45 44 45 46 47 50 50 49 47 49 57 62 78 92 99 99 98 99 99
92 87 85 83 82 84 83 86 87 81 76 74 70 65 62 60 59 55 51 45 44 45 46 46 46 48 51 55 57 56 54 51 48 48 52 63 71 90 99 99 99 99 99
84 84 87 91 93 89 84 81 78 76 74 68 63 57 50 44 41 41 43 45 46 48 49 51 54 59 61 62 61 58 56 54 51 51 53 61 71 84 98 99 99 99 99
94 93 90 85 80 76 74 69 63 55 48 42 39 39 40 42 45 46 48 50 52 56 58 61 63 64 64 65 63 62 61 60 59 58 56 59 74 81 98 99 98 99 99
78 75 70 63 55 46 39 36 36 38 40 41 43 44 47 50 53 54 55 58 61 63 64 64 66 68 69 67 67 66 65 66 65 63 59 61 77 84 97 99 99 99 99